Tracking 19795 objects as of 20-Jul-2019
HD Live streaming from Space Station
objects crossing your sky now

COSMOS 1325

Track COSMOS 1325 now!
10-day predictions
COSMOS 1325 is classified as:


NORAD ID: 12980
Int'l Code: 1981-116F
Perigee: 1,488.2 km
Apogee: 1,623.8 km
Inclination: 74.0 °
Period: 117.1 minutes
Semi major axis: 7926 km
RCS: 0.7 m2 (medium)
Launch date: November 28, 1981
Source: Commonwealth of Independent States (former USSR) (CIS)
Launch site: PLESETSK MISSILE AND SPACE COMPLEX (PKMTR)
aabbcc
Your satellite tracking list
Your tracking list is empty




NASA's NSSDC Master Catalog

Two Line Element Set (TLE):
1 12980U 81116F   19200.91271218 -.00000019 +00000-0 -26963-4 0  9992
2 12980 073.9843 339.5489 0085543 227.2683 304.7971 12.30101548690148
Source of the keplerian elements: AFSPC